User: anonymous   Login
Location: Norwich
(52.6280°N, 1.3030°E)
Time: 15:46:29
(UTC+01:00)
Language:

Meteor 1-22 Rocket - Orbit

View from above orbital plane
View from above orbital plane
View from above satellite
View from above satellite

Ground track
Ground track

The orbit data is extracted from the following two-line orbital elements,

1  8294U 75087B   17115.43967426 +.00000025 +00000-0 +69349-5 0  9999
2  8294 081.2090 074.0073 0104646 190.0833 169.8240 14.08559284137176
Epoch (UTC): 25 April 2017 10:33:07
Eccentricity: 0.0104646
inclination: 81.2090°
perigee height: 788 km
apogee height: 940 km
right ascension of ascending node: 74.0073°
argument of perigee: 190.0833°
revolutions per day: 14.08559284
mean anomaly at epoch: 169.8240°
orbit number at epoch: 13717

The dashed part of the orbit path shows where the satellite is in the earth's shadow,  

DLR